SL-14 DEB, 45269

Orbit data source: Space-Track

SL-14 DEB, 45269 is space debris in LEO originally from a launch on Thu, 15 Aug 1991 UTC launched from the Plesetsk Missile And Space Complex (PKMTR). Debris objects in space refer to the collection of defunct objects orbiting the Earth. Examples of debris include non-operational satellites, rocket bodies, and fragments generated from explosions, collisions, or faulty payload assembly.

Loading next visibility...
Identifier
45269, 1991-056F
Orbit
LEO
Country
Flag of CISCIS
Related business
Manufacturer
Unknown
Mission
Spacecraft
Bus & Motor
Unknown
Mass
Unknown
Launch date (UTC)
1991-08-15 (34 years ago)
Launch vehicle
Unknown
Launch site
Plesetsk Missile And Space Complex (PKMTR)
Object type
Payload
Rocket body
Debris
Shape & HBR
Unknown shape, 0.4 m
Radar Cross Section
Medium (>0.1 m² and <1 m²)

Expand to show TLE details & history
Last TLE update: 12 hours ago

TLE from 12 hours ago
0 SL-14 DEB
1 45269U 91056F   26035.58900177  .00000036  00000-0  57816-4 0  9990
2 45269  82.5718 227.6478 0027287  39.2925 321.0173 13.20586916288209
Epoch: 2026-02-04T14:08Z
TLE epoch observation values (Epoch: 2026-02-04T14:08:09.752Z)
Latitude
-0.00002°
Longitude
-119.14625°
Altitude
1,169.274 km
Speed
7.276 km/s
True Right ascension
15h 10m 35s
True Declination
0° 00' 00"
Sunlit
Object was in daylight at epoch
Visualization orbit readout
Latitude
Unknown
Longitude
Unknown
Altitude
Unknown
Speed
Unknown
Apparent Right ascension
Unknown
Apparent Declination
Unknown
Sunlit
N/A
Visualization observer readout
Local Sidereal Time
03:54:36
Azimuth
Unknown
Elevation
Unknown
Doppler factor
Unknown
Orbital elements
Apogee altitude
1,200.341 km
Perigee altitude
1,159.095 km
Semi-major axis
7,557.855 km
Eccentricity
0.00273
Inclination
82.5718°
RAAN
227.6478°
Arg. of periapsis
39.2925°
True anomaly
320.82007°
Mean anomaly
321.0173°
Eccentric anomaly
320.91874°
Mean motion
3.30328 °/min
Orbital period
108.98 mins
BSTAR
0.000057816
Loading maneuver chart data...
Computing Atmospheric mass density...
Loading historical data...
Loading historical data...
Loading historical data...
Loading historical data...
Loading historical data...
Loading historical data...
Loading historical data...

Documentation

Showing up to 5 results
|